Temperature
22 19 19 19 20 21 22 22 22 23 24 24 23 23 23 23 23 23 23 23 22 22 22 22 22 22 21 21 20 20 20 19 19 19 19 18 18 18 18 17 17 17 17 17
19 19 20 21 22 22 22 22 22 23 24 24 23 23 23 23 23 23 23 22 22 22 21 21 21 21 21 20 20 20 19 19 19 19 19 18 18 18 18 17 17 17 17 17
19 20 22 22 22 22 22 22 22 22 23 23 23 22 22 22 23 23 23 23 22 22 21 21 21 20 20 20 20 19 19 19 18 18 18 18 18 17 17 17 17 17 17 17
20 21 23 22 22 22 22 23 23 23 22 21 22 20 20 21 21 21 21 22 21 21 21 21 21 20 20 20 20 19 19 19 18 18 18 18 18 17 17 17 17 17 17 16
20 22 22 22 23 23 22 23 23 23 22 21 21 20 19 20 21 21 21 21 21 21 21 21 21 21 20 20 20 19 19 19 18 18 18 17 17 17 17 17 17 17 16 16
21 22 23 23 24 24 23 23 22 20 19 20 20 20 19 19 20 21 21 21 21 21 21 20 20 20 20 20 19 19 18 18 18 18 18 17 17 17 17 17 17 16 16 16
21 22 23 24 23 23 22 20 19 19 18 19 20 20 19 20 21 21 20 21 21 21 20 20 20 19 19 19 19 19 18 18 18 18 18 17 17 17 17 17 17 16 16 16
20 20 22 23 22 21 21 19 18 19 18 19 20 19 19 20 21 21 21 21 20 20 20 20 19 19 19 19 19 18 18 18 18 18 18 17 17 17 17 17 16 16 16 16
19 20 22 23 23 22 21 19 19 18 19 19 18 19 20 20 20 19 20 20 19 19 20 19 19 19 19 19 19 18 18 18 18 18 17 17 17 17 16 16 16 16 16 16
20 20 21 23 23 22 21 20 17 17 18 18 19 19 18 19 18 18 18 18 18 19 19 19 19 19 19 19 19 18 18 18 18 17 17 17 17 16 16 16 16 16 16 15
19 19 20 21 21 21 21 20 18 16 17 17 17 17 19 18 18 18 17 18 18 18 18 19 19 19 18 18 18 18 18 17 17 17 17 17 16 16 16 16 16 15 15 15
18 16 17 19 21 22 21 20 18 17 17 16 16 17 18 17 17 17 17 18 19 19 18 18 18 18 18 18 18 17 17 17 17 17 17 16 16 16 16 16 15 15 15 15
18 16 16 18 18 20 20 20 18 16 16 16 16 17 18 17 17 17 17 18 18 18 18 18 18 18 17 17 17 17 17 17 17 16 16 16 16 16 15 15 15 15 15 15
18 16 16 17 17 18 19 20 19 17 16 16 17 17 17 16 16 16 17 17 18 18 18 17 17 17 17 17 17 17 17 16 16 16 16 16 16 15 15 15 15 15 15 14
16 16 17 17 19 19 19 19 19 18 17 17 17 17 16 16 16 16 17 17 17 17 17 17 17 17 16 16 16 16 16 16 16 16 16 16 15 15 15 15 15 14 14 14
14 15 17 17 19 19 18 18 18 18 18 17 17 16 16 16 16 16 16 16 16 16 16 16 16 16 16 16 16 16 16 15 15 15 15 15 15 15 15 14 14 14 14 14
14 14 15 15 17 17 16 17 17 17 17 17 16 15 15 15 15 15 15 15 15 16 15 16 16 16 16 16 15 15 15 15 15 15 15 15 14 14 14 14 14 14 14 14
14 13 12 14 15 15 15 16 17 17 16 16 15 15 15 14 15 15 15 15 15 15 15 15 15 15 15 15 15 15 15 15 15 15 14 14 14 14 14 14 14 13 13 13
13 13 13 13 14 15 16 16 16 15 15 15 14 14 14 14 14 14 15 15 15 15 15 15 14 14 15 15 14 14 14 14 14 14 14 14 14 14 13 13 13 13 13 13
13 12 12 12 14 14 15 16 16 15 14 14 13 13 13 14 12 13 14 14 15 15 14 14 14 14 14 14 14 14 14 14 14 14 14 14 13 13 13 13 13 13 13 13
13 12 12 12 13 13 14 15 16 15 13 13 13 13 13 12 13 14 14 14 14 14 14 14 14 14 14 14 14 13 13 14 14 13 13 13 13 13 13 13 13 13 13 13
12 11 12 11 12 12 14 14 13 12 13 13 13 13 13 13 13 13 13 13 13 13 13 14 13 13 13 13 13 13 13 13 13 13 13 13 13 13 12 12 12 12 12 12
11 11 11 11 11 12 13 13 13 13 13 13 13 13 13 13 13 13 13 13 13 13 13 13 13 13 13 13 13 13 13 13 13 13 13 13 12 12 12 12 12 12 12 12
11 11 11 11 11 12 13 13 13 13 13 13 13 13 13 13 12 12 13 13 13 13 13 12 12 13 13 12 12 12 12 12 12 12 12 12 12 12 12 12 12 12 12 12
11 11 10 10 11 11 12 12 13 13 13 12 13 13 13 12 12 12 12 12 12 13 12 12 12 12 12 12 12 12 12 12 12 12 12 12 12 12 12 12 12 12 12 12
10 10 10 10 11 10 11 12 12 12 12 12 12 12 12 12 12 12 12 12 12 12 12 12 12 12 12 12 12 12 12 12 12 12 11 11 11 11 11 11 11 11 11 11
Wind_Speed
4 3 6 10 10 8 6 6 9 9 7 3 5 7 8 7 7 9 8 8 9 10 8 9 9 10 10 9 9 9 8 6 6 5 5 4 4 3 3 3 4 5 5 5
1 7 12 9 7 7 8 9 10 9 7 3 4 5 6 7 8 10 11 10 10 9 8 8 9 10 10 10 10 9 9 8 6 5 5 4 4 3 3 2 3 4 4 5
10 8 8 8 9 9 10 9 9 8 7 3 1 4 3 4 3 5 7 9 10 12 13 11 10 10 10 10 11 11 9 8 7 5 4 3 3 2 2 1 2 2 4 4
8 10 8 8 9 9 10 9 10 8 4 5 2 4 6 5 4 5 6 7 8 10 11 12 12 11 12 11 11 11 10 9 8 7 6 6 5 4 4 3 3 3 3 4
7 7 8 10 12 9 9 8 7 6 4 4 2 2 6 3 4 6 8 9 8 10 12 13 13 13 12 10 10 10 10 9 8 8 8 7 5 4 3 3 3 3 2 3
9 7 7 9 9 7 6 2 3 2 3 3 5 4 6 5 8 8 7 8 9 10 10 10 10 10 10 10 10 9 9 8 8 8 7 8 8 6 5 5 4 3 2 2
6 8 6 4 3 4 1 3 3 4 2 6 4 3 6 6 8 9 10 9 9 9 9 9 10 11 10 10 10 9 9 8 8 8 8 8 8 7 7 6 6 5 3 2
4 6 5 3 6 5 4 8 7 5 6 5 2 4 4 4 3 4 7 8 8 8 8 9 9 11 11 11 10 9 9 8 8 8 7 7 7 6 5 6 5 6 5 4
5 6 5 4 4 7 4 4 8 6 3 2 3 3 3 3 3 3 3 5 6 8 9 8 8 9 9 10 10 11 10 8 7 7 6 6 6 6 6 5 5 4 4 4
5 4 6 4 0 1 6 6 5 4 4 4 4 3 3 3 1 1 3 5 4 5 7 7 7 8 8 8 8 9 9 9 7 7 7 6 5 5 5 5 5 4 4 4
3 3 6 3 2 3 1 2 4 4 5 5 4 5 4 6 5 5 4 5 6 5 5 5 6 7 7 6 7 7 7 7 6 7 6 6 5 5 5 5 5 5 4 4
1 4 3 6 5 3 4 5 6 4 4 4 4 6 4 3 4 4 3 3 5 6 5 5 5 5 5 6 6 7 7 6 6 6 6 5 5 5 5 5 5 5 5 5
2 4 2 6 6 4 1 1 3 5 4 4 4 5 2 1 1 3 3 3 4 5 5 4 3 4 5 5 5 6 6 6 5 5 5 5 5 6 5 5 5 4 5 4
3 3 5 6 5 2 3 3 0 3 3 4 6 5 4 3 1 1 1 3 4 5 5 5 4 3 3 4 5 5 5 5 5 5 5 5 5 6 5 5 4 4 5 5
4 2 3 4 4 3 3 4 2 2 5 6 6 7 7 7 6 4 2 4 5 4 4 4 4 4 3 3 4 4 4 5 6 6 5 5 5 4 4 4 3 4 4 5
4 2 0 3 3 3 3 4 4 4 3 3 3 4 4 5 3 4 5 6 5 3 2 3 4 4 4 4 4 5 4 4 5 5 4 3 4 4 4 3 3 3 3 3
1 2 2 2 5 4 3 3 2 2 1 2 3 4 3 4 5 5 5 5 3 3 3 3 2 3 3 3 4 4 4 4 4 4 4 3 4 4 4 4 3 3 3 3
4 3 2 1 2 4 5 2 2 3 2 1 1 1 3 5 4 3 4 6 4 3 3 2 1 1 2 2 3 3 3 4 4 3 3 3 4 4 3 4 4 3 2 3
6 6 3 2 2 4 4 1 1 1 2 2 2 2 1 4 4 2 2 4 4 4 3 2 1 1 2 3 3 3 3 3 3 3 3 4 4 4 4 4 4 3 3 3
3 5 4 3 3 5 4 4 2 2 1 2 2 3 2 2 1 3 1 2 3 3 2 2 1 1 2 2 3 3 3 3 3 3 2 3 4 4 4 4 4 2 3 3
2 1 3 3 3 4 4 5 3 2 4 2 0 2 2 2 4 4 3 2 2 2 2 2 2 2 2 2 3 3 2 3 3 3 2 2 2 3 4 3 2 2 2 2
3 2 3 3 3 5 4 2 1 3 2 2 1 0 2 2 2 2 3 3 3 2 1 2 3 2 1 2 3 2 2 2 2 2 2 2 2 2 2 3 2 2 3 3
1 3 3 4 5 4 1 2 2 2 1 1 1 1 3 2 2 1 2 3 3 3 2 2 3 2 1 2 3 2 2 1 2 2 2 2 1 1 1 2 3 2 3 3
3 1 1 1 2 1 1 1 2 3 2 1 1 2 3 2 2 2 1 2 2 2 2 2 3 3 2 2 2 2 2 2 3 2 2 2 2 1 1 1 2 3 3 3
3 2 1 1 2 2 2 1 1 2 3 2 2 1 1 2 1 2 2 2 2 2 2 3 4 3 3 2 2 2 2 3 3 2 2 1 1 1 1 1 2 3 3 5
2 3 3 4 4 2 3 2 1 2 2 1 2 2 1 1 2 1 1 2 3 3 2 2 3 3 3 3 3 2 3 4 4 3 2 2 1 1 1 1 1 2 2 3
Wind_Direction
214 143 222 227 213 210 235 265 272 273 277 252 231 230 218 203 180 183 184 172 164 167 165 159 158 155 146 143 146 153 150 156 149 147 150 154 159 167 165 169 158 153 152 153
330 238 232 231 236 230 243 263 272 285 282 254 245 247 219 200 190 186 183 179 172 162 158 159 157 155 154 156 157 157 160 164 164 166 167 163 156 162 167 167 163 156 156 160
209 236 229 228 243 245 250 239 249 257 290 301 270 303 267 233 201 188 181 178 177 170 167 168 163 160 159 162 168 168 170 169 173 164 141 126 112 103 119 162 179 183 165 164
234 246 243 234 242 231 250 245 241 247 263 273 191 246 265 234 214 199 199 187 185 178 169 167 168 167 171 174 171 167 169 168 176 166 158 157 160 171 189 187 187 191 179 172
241 234 230 234 237 230 238 246 244 248 239 275 292 191 266 233 213 216 206 196 191 184 175 172 174 175 175 172 169 168 166 172 178 173 172 169 174 186 179 170 170 180 182 179
244 252 226 226 238 232 227 284 328 4 87 261 242 186 258 224 211 213 207 192 187 183 176 175 171 168 169 167 165 165 168 178 177 173 172 173 178 177 166 175 180 186 188 187
281 280 270 233 250 289 144 103 18 342 340 248 240 185 243 247 216 197 195 189 176 171 165 163 163 167 169 167 169 169 171 181 179 175 179 183 184 181 182 184 188 184 183 192
230 274 258 220 192 209 205 152 165 203 229 265 303 207 250 265 209 178 171 168 164 160 160 159 160 160 163 166 168 169 171 181 182 182 184 183 182 181 183 182 181 185 191 198
197 251 272 240 201 166 185 191 178 161 220 247 263 264 300 354 51 74 117 147 163 162 157 157 157 157 160 166 172 173 171 173 180 181 177 176 179 177 177 177 175 184 190 192
175 249 284 278 130 193 168 162 102 130 182 240 257 240 223 222 202 90 100 136 152 151 152 152 155 156 164 172 173 170 169 173 177 178 178 178 179 175 169 164 173 183 186 185
156 186 302 339 179 219 179 141 133 147 168 175 231 257 217 201 187 171 171 149 146 146 147 157 160 163 162 159 161 166 166 164 171 177 175 172 173 172 169 171 183 186 184 184
143 137 254 269 263 204 175 176 148 162 226 178 187 254 269 189 164 151 143 129 137 148 153 149 156 152 150 155 160 162 161 165 177 174 165 166 165 167 177 184 189 187 190 191
127 111 31 339 340 6 54 135 147 149 148 170 183 249 308 26 97 106 100 107 129 145 145 129 127 153 156 155 158 162 163 169 169 162 163 164 164 175 187 193 196 190 190 191
116 119 163 201 229 263 295 308 326 135 175 214 211 218 265 273 203 95 100 136 136 129 146 146 142 139 150 156 154 159 164 163 163 161 166 175 183 187 191 193 191 189 189 185
85 148 210 235 254 268 293 309 309 236 203 201 216 205 222 225 198 180 156 136 129 125 128 147 153 151 145 149 155 155 161 161 161 162 176 188 187 173 168 175 184 181 184 185
60 131 339 311 302 303 309 311 294 275 260 214 196 246 215 184 153 129 124 122 130 135 131 126 140 143 153 160 166 154 157 159 156 162 178 186 175 165 168 176 170 162 169 171
77 97 67 289 315 342 289 271 231 235 284 163 215 247 168 139 141 144 136 129 148 151 124 115 114 132 149 159 163 161 159 143 145 159 167 175 172 171 179 177 160 172 185 175
152 127 135 227 2 243 243 262 136 107 28 21 145 181 165 162 149 133 134 133 132 122 127 140 160 135 142 138 138 142 139 144 150 163 177 179 174 177 185 179 169 181 198 189
162 150 140 139 216 268 278 287 59 95 331 357 95 112 125 127 84 51 105 127 138 146 152 156 177 185 145 145 150 150 148 150 154 163 182 188 182 178 178 183 181 185 194 199
114 123 136 155 192 229 248 307 311 118 226 344 92 131 132 107 141 237 185 121 108 105 125 137 131 115 129 153 143 139 149 150 171 174 180 184 180 182 188 196 196 194 190 205
93 97 159 181 215 256 284 313 2 144 232 289 264 163 161 192 205 197 163 145 138 135 138 133 132 129 157 164 134 135 157 177 191 171 156 145 170 181 191 198 187 189 193 188
160 160 188 170 196 248 308 22 107 217 235 219 261 146 133 149 147 147 151 155 148 155 174 152 146 152 171 152 134 147 189 202 164 148 146 145 155 177 182 181 183 180 177 174
163 188 187 189 211 249 254 161 191 155 134 242 223 157 132 135 141 140 167 174 167 173 195 184 160 159 160 151 143 170 223 170 136 130 139 147 149 179 177 178 179 179 176 179
309 352 142 215 265 271 0 71 84 100 92 26 314 160 146 154 180 161 156 173 167 168 189 186 165 162 177 193 178 202 210 154 138 147 151 145 149 169 201 194 190 191 194 190
271 316 314 248 267 17 8 31 81 70 73 45 6 68 158 171 191 191 170 182 190 200 201 189 172 178 201 200 209 214 187 160 151 160 172 170 170 164 157 180 225 216 218 205
243 199 194 230 229 202 261 279 15 60 53 10 19 19 17 146 182 197 197 209 198 197 189 188 185 191 212 206 219 225 206 178 167 171 180 187 193 191 178 176 299 322 265 243
Height
1479 1486 1490 1486 1485 1487 1487 1490 1491 1481 1473 1475 1477 1477 1474 1472 1473 1475 1476 1478 1479 1481 1484 1487 1489 1491 1493 1495 1498 1501 1503 1504 1506 1507 1508 1510 1511 1512 1514 1515 1516 1516 1517 1517
1484 1486 1479 1477 1479 1481 1485 1489 1487 1479 1471 1473 1476 1475 1471 1470 1471 1472 1473 1476 1477 1479 1482 1484 1487 1489 1491 1493 1496 1498 1500 1502 1504 1505 1507 1508 1509 1511 1512 1513 1514 1515 1515 1516
1483 1477 1472 1475 1478 1481 1482 1485 1484 1482 1474 1472 1476 1481 1475 1470 1470 1471 1472 1473 1474 1475 1477 1481 1484 1486 1489 1491 1493 1496 1498 1500 1502 1504 1506 1507 1508 1510 1511 1512 1512 1513 1514 1514
1476 1470 1470 1473 1475 1476 1482 1472 1473 1475 1482 1488 1481 1498 1482 1473 1471 1470 1471 1472 1473 1474 1475 1477 1480 1483 1485 1488 1491 1493 1495 1497 1500 1502 1503 1504 1505 1506 1508 1509 1510 1511 1512 1512
1472 1466 1468 1471 1469 1468 1471 1465 1468 1471 1479 1487 1484 1495 1487 1474 1474 1470 1468 1469 1470 1472 1473 1474 1477 1479 1482 1485 1488 1490 1493 1495 1498 1499 1500 1502 1503 1505 1506 1508 1509 1509 1510 1511
1465 1459 1460 1460 1459 1460 1461 1465 1469 1475 1486 1498 1486 1492 1491 1478 1470 1467 1465 1466 1467 1469 1471 1473 1475 1478 1481 1484 1485 1488 1490 1493 1495 1496 1498 1499 1501 1502 1504 1505 1506 1507 1508 1509
1467 1460 1455 1455 1461 1460 1464 1480 1498 1500 1505 1500 1481 1486 1485 1467 1461 1460 1461 1463 1465 1467 1469 1471 1473 1475 1478 1481 1483 1486 1488 1490 1492 1494 1496 1497 1498 1500 1501 1503 1504 1505 1506 1506
1476 1474 1457 1453 1457 1463 1465 1476 1499 1507 1507 1496 1482 1486 1477 1461 1457 1458 1459 1461 1463 1465 1467 1469 1470 1473 1475 1478 1481 1483 1485 1487 1490 1492 1493 1495 1496 1497 1499 1500 1502 1503 1503 1504
1473 1471 1452 1448 1448 1454 1464 1472 1473 1489 1490 1495 1490 1480 1470 1461 1460 1459 1459 1460 1462 1464 1465 1467 1469 1471 1474 1476 1478 1480 1482 1485 1487 1489 1491 1492 1494 1495 1496 1498 1499 1500 1501 1503
1461 1468 1455 1448 1448 1450 1455 1462 1478 1489 1499 1502 1491 1484 1480 1469 1466 1463 1462 1462 1464 1465 1466 1467 1469 1470 1473 1475 1476 1478 1480 1482 1484 1486 1488 1490 1491 1492 1494 1496 1497 1498 1499 1500
1457 1468 1463 1455 1455 1458 1459 1463 1471 1483 1487 1497 1500 1490 1466 1464 1462 1462 1462 1462 1463 1464 1465 1466 1468 1470 1471 1473 1475 1476 1478 1480 1482 1484 1486 1487 1489 1490 1492 1493 1494 1496 1497 1498
1457 1467 1472 1462 1451 1447 1452 1458 1469 1484 1486 1487 1493 1487 1460 1460 1459 1460 1461 1462 1462 1463 1465 1466 1468 1469 1471 1471 1473 1474 1476 1477 1479 1482 1484 1485 1487 1488 1489 1491 1492 1493 1494 1495
1456 1468 1478 1473 1465 1455 1455 1456 1461 1470 1480 1485 1490 1482 1459 1459 1459 1460 1461 1462 1463 1463 1465 1466 1467 1469 1470 1471 1472 1473 1474 1475 1478 1480 1482 1483 1484 1485 1486 1488 1489 1490 1491 1492
1452 1466 1475 1479 1472 1462 1461 1458 1458 1467 1480 1479 1475 1472 1465 1461 1461 1460 1460 1461 1463 1464 1465 1466 1467 1468 1469 1470 1471 1472 1473 1475 1477 1478 1479 1481 1482 1483 1484 1485 1486 1487 1488 1490
1454 1465 1463 1462 1457 1456 1457 1457 1457 1461 1464 1470 1467 1465 1462 1459 1459 1459 1460 1461 1462 1464 1465 1466 1466 1466 1468 1469 1470 1471 1472 1473 1475 1476 1477 1479 1480 1481 1482 1483 1484 1485 1486 1487
1458 1464 1462 1462 1455 1455 1458 1456 1455 1456 1456 1459 1460 1462 1456 1456 1457 1458 1459 1460 1461 1463 1464 1465 1465 1465 1466 1468 1469 1470 1471 1472 1473 1474 1475 1476 1477 1478 1479 1480 1481 1482 1483 1484
1462 1465 1470 1471 1461 1459 1466 1459 1456 1457 1455 1457 1462 1460 1456 1457 1457 1458 1458 1460 1462 1463 1463 1464 1464 1465 1465 1466 1467 1468 1469 1470 1472 1473 1473 1474 1474 1475 1476 1477 1478 1479 1480 1481
1461 1467 1473 1473 1469 1476 1466 1454 1452 1455 1456 1455 1455 1456 1456 1456 1457 1458 1458 1459 1461 1462 1463 1463 1464 1464 1465 1465 1466 1467 1468 1469 1470 1470 1471 1471 1472 1473 1474 1475 1475 1476 1477 1478
1454 1463 1471 1476 1476 1470 1460 1454 1454 1456 1459 1456 1455 1455 1456 1456 1457 1459 1459 1459 1460 1461 1462 1462 1463 1464 1464 1464 1465 1465 1466 1467 1468 1468 1469 1469 1470 1471 1471 1472 1473 1474 1475 1475
1454 1458 1468 1473 1475 1474 1462 1453 1450 1454 1462 1457 1455 1455 1456 1456 1460 1460 1458 1458 1458 1459 1460 1461 1462 1463 1463 1463 1464 1464 1465 1465 1466 1466 1467 1467 1468 1469 1469 1470 1471 1472 1472 1473
1462 1465 1469 1472 1472 1467 1457 1452 1451 1462 1463 1458 1456 1455 1455 1456 1456 1456 1456 1457 1457 1457 1458 1460 1460 1460 1461 1462 1462 1463 1463 1463 1464 1465 1466 1466 1467 1467 1468 1469 1469 1470 1470 1471
1464 1468 1469 1471 1473 1471 1455 1453 1457 1459 1455 1456 1455 1454 1453 1454 1454 1455 1455 1456 1456 1457 1457 1458 1458 1459 1460 1461 1461 1461 1461 1462 1463 1463 1464 1465 1465 1466 1466 1467 1467 1467 1468 1468
1463 1463 1464 1465 1466 1458 1454 1454 1454 1453 1453 1454 1453 1453 1454 1453 1453 1454 1454 1455 1455 1456 1456 1456 1457 1457 1459 1459 1459 1459 1460 1460 1461 1462 1462 1462 1463 1464 1464 1464 1464 1465 1465 1466
1461 1458 1460 1461 1458 1455 1454 1453 1452 1452 1453 1452 1453 1452 1452 1452 1452 1452 1453 1453 1453 1454 1455 1455 1455 1455 1456 1458 1457 1459 1459 1459 1460 1460 1460 1460 1461 1461 1462 1462 1462 1462 1463 1463
1462 1460 1460 1460 1457 1455 1454 1453 1452 1452 1451 1452 1452 1451 1452 1452 1452 1451 1451 1452 1452 1453 1453 1453 1453 1453 1454 1456 1456 1456 1457 1458 1458 1459 1459 1459 1459 1459 1460 1460 1460 1461 1461 1461
1459 1459 1460 1459 1455 1455 1454 1453 1452 1451 1451 1452 1452 1451 1451 1451 1450 1449 1449 1450 1450 1451 1451 1452 1452 1452 1453 1454 1454 1454 1455 1457 1457 1457 1457 1457 1458 1458 1458 1458 1459 1459 1460 1460